CYGFM04 (41885 NORAD) Tracking and Keplerian Element Data

This shows tracking and keplerian element data for the satellite.

Feedback or suggestion? Click here.




ElementValue
Catalog41885
NameCYGFM04
Epoch Orbit13029
Epoch Day113.49458345
Epoch Year2019
RAAN149.7533
Inclination34.9488
Eccentricity0.0014769
Argument of Perigee254.4781
Mean Anonmoly105.43
Mean Motion15.14868189
Decay Rate3.15E-06
L11 41885U 16078B 19113.49458345 .00000315 00000-0 18220-4 0 9991
L22 41885 34.9488 149.7533 0014769 254.4781 105.4300 15.14868189130293

Live tracking and technical data element details for CYGFM04 (NORAD 41885). CYGFM04 can be tracked NOW for your location showing map with azimuth and elevation plus other details from your city location.

Track the satellite on the map from your city or location and see movement details for azimuth, elevation, latitude, longitude, range, height, and movement on the map or in text.







IsCatalogInMostPopularTable: catalog: 41885, numindb: 186
Update: records affected: 1



GetName: 41885 CYGFM04

Hit Count: updated at: Thu, 25 Apr 2019 20:29:33 GMT